Regional Weather Roundup
Issued by NWS Northern Indiana

Home | Current Version | Previous Version | Text Only | Print | Product List | Glossary On
Versions: 1 2 3 4 5 6 7 8 9 10 11 12 13 14 15 16 17 18 19 20 21 22 23 24 25 26 27 28 29 30 31 32 33 34 35 36 37 38 39 40 41 42 43 44 45 46 47 48 49 50
000
ASUS43 KIWX 011010
RWRIWX

KIWX WEATHER ROUNDUP
NATIONAL WEATHER SERVICE NORTHERN INDIANA
600 AM EDT WED OCT 01 2014

NOTE: "FAIR" INDICATES FEW OR NO CLOUDS BELOW 12,000 FEET WITH NO
SIGNIFICANT WEATHER AND/OR OBSTRUCTIONS TO VISIBILITY.

* THESE STATIONS ARE NOT UNDER NWS QUALITY CONTROL. THEY ALSO MAY NOT
  REPORT WEATHER SUCH AS PRECIPITATION OR FOG.

INZ001>027-011100-
NORTHERN INDIANA

CITY           SKY/WX    TMP DP  RH WIND       PRES   REMARKS
GARY*          PTCLDY    46  45  93 E7        30.02S
VALPARAISO     CLEAR     45  44  97 CALM      30.02R
MICHIGAN CITY* CLOUDY    50  50 100 CALM      30.02S
LAPORTE*       CLOUDY    54  52  93 CALM      30.02R
KNOX*            N/A     40  38  94 CALM      30.00F VSB 1/4
SOUTH BEND     NOT AVBL
MONTICELLO*    CLEAR     45  45  99 CALM      30.00S
LOGANSPORT*    CLEAR     41  39  93 CALM      30.02R FOG
ROCHESTER*     CLEAR     45  45 100 E5        30.02S
WARSAW*        CLEAR     48  46  93 CALM      30.02R
ANGOLA*        CLOUDY    52  46  82 E3        30.02S
FORT WAYNE     PTCLDY    46  45  96 E3        30.03R FOG
HUNTINGTON*    MOCLDY    47  47  99 CALM      30.01S FOG
PERU/GRISSOM   CLEAR     45  45 100 E6        30.00S
MARION*        MOCLDY    47  47  99 E5        30.01S FOG

$$
INZ028>050-011100-
CENTRAL INDIANA

CITY           SKY/WX    TMP DP  RH WIND       PRES   REMARKS
LAFAYETTE      CLEAR     45  44  97 CALM      30.00R
KOKOMO*        CLEAR     41  37  87 E5        30.01S
MUNCIE*        PTCLDY    42  41  96 E5        30.00S FOG
INDIANAPOLIS   CLEAR     50  45  83 E5        29.99S

$$
MIZ043>046-050>051-056>058-064>065-071>073-077>080-011100-
SOUTHWEST LOWER MICHIGAN

CITY           SKY/WX    TMP DP  RH WIND       PRES   REMARKS
BATTLE CREEK   CLOUDY    52  48  86 CALM      30.03S
COLDWATER*     CLOUDY    53  47  82 SE3       30.02S
HILLSDALE*     CLOUDY    51  51 100 CALM      30.02S
HOLLAND        CLOUDY    54  49  83 E3        30.04R
GRAND RAPIDS   CLOUDY    53  51  93 E3        30.03S
KALAMAZOO      CLOUDY    52  47  83 VRB3      30.03S
STURGIS*       CLOUDY    52  48  87 E3        30.01F
THREE RIVERS*  CLOUDY    53  47  82 E3        30.03R

$$
OHZ001>008-015>018-024>025-011100-
NORTHWEST OHIO

CITY           SKY/WX    TMP DP  RH WIND       PRES   REMARKS
WAUSEON*       FAIR      45  45 100 CALM      30.02S FOG
DEFIANCE       CLEAR     48  45  89 CALM      30.03R
FINDLAY        PTCLDY    52  49  89 N3        30.00S
TOLEDO EXPRESS PTCLDY    47  46  97 CALM      30.02R
TOLEDO METCALF CLEAR     47  44  90 NW3       30.02S
LIMA           CLOUDY    50  48  93 CALM      30.01S FOG

$$
AND FOR LAKE MICHIGAN COASTAL AND OPEN LAKE BUOY OBSERVATIONS

STATION/POSITION TEMP    WIND        PRES    VSBY  WAVE
                 AIR SEA DIR/SP/G                  HT/PER
                 (F)     (DEG/KT/KT) (MB)    (MI)  (FT/S)
CALUMET HARBOR    56     120/  6/ 10 1014.9F
MICHIGAN CITY     53      70/  4/  4   N/A
SAINT JOSEPH      54        CALM     1017.6R
SOUTH LAKE BUOY   57 62  140/ 10/ 12 1016.6R         2/ 5
4 MI NW BRIDGMAN  55 62  130/  8/ 12   N/A           2/ 2
MICHIGAN CITY     56 64  130/  6/ 10   N/A           2/ 2

$$
&&



USA.gov is the U.S. government's official web portal to all federal, state and local government web resources and services.